Location: Saluda
(35.2377°N, 82.3468°W)
Time: 04:59:36
(UTC+00:00)

N. Korean satellite - Visible Passes

Search period start: 16 August 2022 00:00
Search period end: 26 August 2022 00:00
Orbit: 433 x 470 km, 97.3° (Epoch: 15 August)

Date Brightness Start Highest point End Pass type
(mag) Time Alt. Az. Time Alt. Az. Time Alt. Az.
16 Aug 8.4 10:14:04 10° NNE 10:17:17 33° E 10:20:29 10° SSE visible
17 Aug 9.8 09:41:21 10° ENE 09:42:34 11° E 09:43:47 10° ESE visible
19 Aug 9.0 10:03:25 10° NE 10:06:18 23° E 10:09:08 10° SSE visible
21 Aug 7.5 10:26:25 10° NNE 10:29:51 51° E 10:33:14 10° S visible
22 Aug 9.5 09:52:45 10° NE 09:55:04 17° E 09:57:21 10° SE visible
24 Aug 8.3 10:15:18 10° NNE 10:18:31 34° E 10:21:40 10° SSE visible
25 Aug 9.8 09:42:21 10° ENE 09:43:36 12° E 09:44:51 10° ESE visible
